Regional Weather Roundup
Issued by NWS

Home | Current Version | Previous Version | Graphics & Text | Print | Product List | Glossary On
Versions: 1 2 3 4 5 6 7 8 9 10 11 12 13 14 15 16 17 18 19 20 21 22 23 24 25 26 27
000
ASUS45 KBOU 231410
RWRCO

WEATHER ROUNDUP FOR COLORADO
NATIONAL WEATHER SERVICE DENVER/BOULDER CO
700 AM MST THU NOV 23 2017

NOTE: "FAIR" INDICATES FEW OR NO CLOUDS BELOW 12000 FEET WITH NO
SIGNIFICANT WEATHER AND/OR OBSTRUCTIONS TO VISIBILITY.

COZ001>005-013-030-031-231500-
...NORTHWEST COLORADO...

CITY           SKY/WX    TMP DP  RH WIND       PRES   REMARKS
CRAIG          FAIR      26  23  88 W3        30.39S
HAYDEN         FAIR      34  32  92 E12       30.39F WCI  25
MEEKER         FAIR      29  27  92 NE6       30.40S WCI  23
RABBIT EARS PA CLOUDY   N/A N/A N/A W5        30.48S
STEAMBOAT SPGS CLOUDY    29  29 100 CALM      30.40S VSB<1/4
WALDEN         FAIR      37  30  75 S10       30.40S
$$

COZ006>008-011-231500-
...WEST CENTRAL VALLEYS...

CITY           SKY/WX    TMP DP  RH WIND       PRES   REMARKS
GRAND JUNCTION FAIR      37  32  82 E9        30.37S
MONTROSE       FAIR      31  27  85 S5        30.42S WCI  26
EAGLE          CLOUDY    24  23  96 CALM      30.48S VSB 1/2
RIFLE          FAIR      30  29  96 CALM      30.42R
DELTA          FAIR      30  26  84 CALM      30.41S
NUCLA          FAIR      36  30  80 CALM      30.43S
$$

COZ017>023-064>068-231500-
...SOUTHWEST COLORADO...

CITY           SKY/WX    TMP DP  RH WIND       PRES   REMARKS
DURANGO        FAIR      28  23  81 CALM      30.38S
CORTEZ         FAIR      26  23  88 NE7       30.38R WCI  18
PAGOSA SPRINGS FAIR      32  25  74 CALM      30.41S
TELLURIDE      FAIR      34  25  69 SE7       30.50S WCI  28
WOLF CREEK PAS FAIR      36  12  38 NW6       30.61S
$$

COZ009-010-012-014-032>034-037-058>063-231500-
...CENTRAL COLORADO...

CITY           SKY/WX    TMP DP  RH WIND       PRES   REMARKS
ASPEN          FAIR      30  26  85 SW7       30.44S WCI  23
BUENA VISTA    FAIR      37  30  76 W3        30.42R
COPPER MTN     FAIR      30  27  86 MISG      30.56R
BERTHOUD PASS  FAIR      23  12  63 NW46G55   30.45F WCI   2
COTTONWOOD PAS FAIR      43  30  61 NW8       30.46S
GUNNISON       FAIR      22  20  92 CALM      30.50R
KREMMLING      FOG       32  30  93 CALM      30.44S VSB 1/2
LEADVILLE      FAIR      26  24  92 NE7       30.48S WCI  18
MONARCH PASS   FAIR      28  27  93 SW14G24   30.66R WCI  17
SALIDA         FAIR      34  31  88 W5        30.48F WCI  30
SUNLIGHT       FAIR      34  25  69 N3        30.56S
WILKERSON PASS FAIR      34  19  55 N14G21    30.50F WCI  24
$$

COZ069>075-231500-
...SAN LUIS VALLEY/SANGRE DE CRISTO MOUNTAINS...

CITY           SKY/WX    TMP DP  RH WIND       PRES   REMARKS
ALAMOSA        FAIR      23  20  88 SW7       30.41S WCI  15
DEL NORTE      FAIR      37  26  64 W7        30.42F
LA VETA PASS   FAIR      32  28  86 SW15        N/A  WCI  22
SAGUACHE       FAIR      37  30  75 NW17      30.42R
$$

COZ035-036-038>040-231500-
...NORTHERN COLORADO FRONT RANGE...

CITY           SKY/WX    TMP DP  RH WIND       PRES   REMARKS
DENVER INTL AP MOCLDY    47  31  53 S13       30.19F
DMNS CITY PARK   N/A     47  31  53 S2G9      30.20F
AURORA         MOCLDY    42  32  66 S12       30.22F
FRONT RANGE AP MOCLDY    41  34  75 SE10      30.21F
ERIE MUNI ARPT FAIR      35  32  88 CALM      30.24F
BOULDER MUN AP FAIR      50  32  50 S3        30.18F
CENTENNIAL     MOCLDY    45  32  60 S9        30.23F
BROOMFIELD     MOCLDY    55  30  38 W16       30.20F
FORT COLLINS   FAIR      39  34  82 S3        30.19F
LONGMONT       FAIR      42  34  74 W3        30.20F
$$

COZ041-046-047-076>085-087-088-231500-
...PIKES PEAK/PALMER DIVIDE AND SOUTHERN FOOTHILLS...

CITY           SKY/WX    TMP DP  RH WIND       PRES   REMARKS
COLO. SPRINGS  MOCLDY    44  31  60 N6        30.28F
A. F. ACADEMY  FAIR      34  29  80 N6        30.28F WCI  29
SCHRIEVER AFB  FAIR      47  30  52 NW6       30.28S
CHEYENNE MTN   FAIR      49  30  48 CALM      30.25F
ELLICOTT         N/A    N/A N/A N/A W3        30.26F
FALCON         FAIR      42  29  62 W12       30.30F
FORT CARSON    FAIR      43  32  65 N8        30.26S
LIMON          FAIR      29  28  96 N3        30.23F
MONUMENT HILL  FAIR      37  30  75 SW10      30.31S
CANON CITY     FAIR      50  34  53 W8        30.26S
WALSENBURG     FAIR      48  32  53 W12       30.29S
TRINIDAD       FAIR      42  30  62 CALM      30.29S
$$

COZ042>045-048>051-090-091-231500-
...NORTHEAST COLORADO...

CITY           SKY/WX    TMP DP  RH WIND       PRES   REMARKS
GREELEY ARPT   FAIR      30  28  92 NW8       30.19F WCI  22
AKRON          FAIR      44  35  70 W13       30.16F
BURLINGTON     FAIR      40  35  83 W7        30.18F
WRAY           NOT AVBL
YUMA           FAIR      37  34  87 W8        30.15F
STERLING       FAIR      36  34  93 SW6       30.15S
HOLYOKE        FAIR      41  36  81 W8        30.13S
FORT MORGAN    FAIR      34  31  86 W7        30.18S WCI  28
$$

COZ086-089-092>099-231500-
...SOUTHEAST COLORADO...

CITY           SKY/WX    TMP DP  RH WIND       PRES   REMARKS
PUEBLO         FAIR      34  29  82 CALM      30.24R
LA JUNTA       FAIR      40  32  73 SW7       30.23S
LAMAR          FAIR      37  29  72 W6        30.20S
SPRINGFIELD      N/A     39  32  76 W7        30.23R
$$




USA.gov is the U.S. government's official web portal to all federal, state and local government web resources and services.